Regional Weather Roundup
Issued by NWS Cleveland, OH

Home | Current Version | Previous Version | Graphics & Text | Print | Product List | Glossary On
Versions: 1 2 3 4 5 6 7 8 9 10 11 12 13 14 15 16 17 18 19 20 21 22 23 24 25 26 27 28 29 30 31 32 33 34 35 36 37 38 39 40 41 42 43 44 45 46 47 48 49 50
000
ASUS41 KCLE 241210
RWRCLE
OHIO REGIONAL WEATHER ROUNDUP
NATIONAL WEATHER SERVICE WILMINGTON, OH
800 AM EDT THU JUL 24 2014

NOTE: "FAIR" INDICATES FEW OR NO CLOUDS BELOW 12,000 FEET WITH NO
SIGNIFICANT WEATHER AND/OR OBSTRUCTIONS TO VISIBILITY.

OHZ001>008-015>018-024>027-034-035-043-044-241300-
   NORTHWEST OHIO

CITY           SKY/WX    TMP DP  RH WIND       PRES   REMARKS
DEFIANCE       CLOUDY    62  53  72 NE9       30.12R
FINDLAY        SUNNY     60  53  77 N8        30.08S
TOLEDO EXPRESS SUNNY     58  52  80 N8        30.11R
TOLEDO METCALF SUNNY     61  51  70 N8        30.11R
LIMA           SUNNY     58  54  86 N8        30.09R
$$

OHZ009>014-019>023-028>033-038-089-241300-
   NORTHEAST OHIO

CITY           SKY/WX    TMP DP  RH WIND       PRES   REMARKS
CLE-HOPKINS    MOSUNNY   64  55  72 N5        30.07R
CLE-LAKEFRONT  PTSUNNY   66  56  70 NE5       30.04S
CUY CO. ARPT   PTSUNNY   61  59  94 E5        30.00F
LORAIN-ELYRIA  SUNNY     67  57  70 N6        30.07R
ASHTABULA      MOSUNNY   63  57  81 CALM      30.06R
AKRON-CANTON   MOSUNNY   60  56  86 N7        30.05R
WOOSTER        SUNNY     60  57  89 N6        30.06S
MANSFIELD      MOSUNNY   59  58  96 NW6       30.07S
YOUNGSTOWN     PTSUNNY   62  56  80 N7        30.04R
$$

OHZ042-051>053-060>062-070>072-077>081-241300-
  SOUTHWEST OHIO

CITY           SKY/WX    TMP DP  RH WIND       PRES   REMARKS
CINC-COVINGTON MOSUNNY   63  55  75 NE14      30.04R
CINC-LUNKEN    SUNNY     63  56  78 NE8       30.05R
HAMILTON       SUNNY     62  57  83 N9        30.06R
DAYTON         MOSUNNY   60  56  86 N12       30.08R
WRIGHT-PAT AFB MOSUNNY   60  56  87 N7        30.06R
DAYTON GENERAL CLOUDY    60  57  89 NE9       30.05R
WILMINGTON     MOSUNNY   60  55  83 N13       30.03S
$$

OHZ036-037-039>041-045>050-054>059-063>069-073>076-082>088-241300-
  CENTRAL AND SOUTHEAST OHIO

CITY           SKY/WX    TMP DP  RH WIND       PRES   REMARKS
COLUMBUS       MOSUNNY   62  55  77 N8        30.03S
OSU AIRPORT    MOSUNNY   59  56  89 N10       30.05R
BOLTON FIELD   SUNNY     59  57  94 N7        30.05R
RICKENBACK AFB MOSUNNY   61  53  76 N6        30.04R
NEWARK         MOSUNNY   60  55  83 N7        30.03R
MARION         SUNNY     60  56  86 N9        30.07R
LANCASTER      PTSUNNY   60  57  89 N7        30.04R
ZANESVILLE     CLOUDY    60  56  86 N6        30.03R
NEW PHILLY     SUNNY     61  57  87 N5        30.04R
$$


USA.gov is the U.S. government's official web portal to all federal, state and local government web resources and services.